| time (UTC) | temp F | wind direction | speed MPH | gust MPH | rain 1hr in | rain 24hr in | rain mn in | humidity % | barometer mb |
| 20260505003550 | 57 | 207 | 5.0 | 11.0 | 0.00 | 0.00 | 0.00 | 59 | 1009.4 |
| 20260505003057 | 58 | 213 | 4.0 | 10.0 | 0.00 | 0.00 | 0.00 | 58 | 1009.3 |
| 20260505002548 | 58 | 209 | 6.0 | 12.0 | 0.00 | 0.00 | 0.00 | 60 | 1009.2 |
| 20260505002048 | 58 | 240 | 5.0 | 12.0 | 0.00 | 0.00 | 0.00 | 54 | 1009.1 |
| 20260505001557 | 58 | 257 | 4.0 | 11.0 | 0.00 | 0.00 | 0.00 | 56 | 1009.0 |
| 20260505001048 | 59 | 247 | 5.0 | 13.0 | 0.00 | 0.00 | 0.00 | 56 | 1008.9 |
| 20260505000547 | 59 | 236 | 5.0 | 13.0 | 0.00 | 0.00 | 0.00 | 56 | 1008.8 |
| 20260505000057 | 59 | 264 | 7.0 | 13.0 | 0.00 | 0.00 | 0.00 | 55 | 1008.7 |
| 20260504235549 | 59 | 244 | 5.0 | 11.0 | 0.00 | 0.00 | 0.00 | 54 | 1008.6 |
| 20260504235049 | 60 | 209 | 5.0 | 11.0 | 0.00 | 0.00 | 0.00 | 51 | 1008.7 |
| 20260504234553 | 60 | 203 | 6.0 | 11.0 | 0.00 | 0.00 | 0.00 | 52 | 1008.5 |
| 20260504234048 | 60 | 271 | 3.0 | 12.0 | 0.00 | 0.00 | 0.00 | 52 | 1008.5 |
| 20260504233548 | 61 | 211 | 4.0 | 15.0 | 0.00 | 0.00 | 0.00 | 52 | 1008.4 |
| 20260504233049 | 61 | 255 | 7.0 | 16.0 | 0.00 | 0.00 | 0.00 | 51 | 1008.3 |
| 20260504232548 | 62 | 228 | 7.0 | 16.0 | 0.00 | 0.00 | 0.00 | 50 | 1008.3 |
| 20260504232047 | 62 | 248 | 8.0 | 15.0 | 0.00 | 0.00 | 0.00 | 50 | 1008.2 |
| 20260504231551 | 62 | 223 | 6.0 | 16.0 | 0.00 | 0.00 | 0.00 | 46 | 1008.2 |
| 20260504231047 | 63 | 248 | 8.0 | 19.0 | 0.00 | 0.00 | 0.00 | 46 | 1008.2 |
| 20260504230552 | 63 | 221 | 7.0 | 19.0 | 0.00 | 0.00 | 0.00 | 49 | 1008.2 |
| 20260504230057 | 63 | 219 | 8.0 | 18.0 | 0.00 | 0.00 | 0.00 | 47 | 1008.1 |
| 20260504225549 | 63 | 225 | 8.0 | 18.0 | 0.00 | 0.00 | 0.00 | 49 | 1008.0 |
| 20260504225048 | 64 | 261 | 5.0 | 17.0 | 0.00 | 0.00 | 0.00 | 48 | 1007.9 |
| 20260504224556 | 64 | 250 | 8.0 | 17.0 | 0.00 | 0.00 | 0.00 | 49 | 1007.8 |
| 20260504224051 | 64 | 254 | 8.0 | 17.0 | 0.00 | 0.00 | 0.00 | 47 | 1007.8 |
| 20260504223547 | 64 | 215 | 7.0 | 16.0 | 0.00 | 0.00 | 0.00 | 46 | 1007.9 |
| 20260504223125 | 64 | 249 | 4.0 | 12.0 | 0.00 | 0.00 | 0.00 | 47 | 1007.9 |
| 20260504222548 | 64 | 257 | 7.0 | 26.0 | 0.00 | 0.00 | 0.00 | 48 | 1007.7 |
| 20260504222048 | 64 | 191 | 6.0 | 26.0 | 0.00 | 0.00 | 0.00 | 47 | 1007.7 |
| 20260504221600 | 65 | 201 | 11.0 | 21.0 | 0.00 | 0.00 | 0.00 | 46 | 1007.8 |
| 20260504221047 | 66 | 206 | 7.0 | 15.0 | 0.00 | 0.00 | 0.00 | 45 | 1007.6 |
| 20260504220548 | 66 | 261 | 8.0 | 15.0 | 0.00 | 0.00 | 0.00 | 42 | 1007.6 |
| 20260504220058 | 66 | 225 | 7.0 | 16.0 | 0.00 | 0.00 | 0.00 | 44 | 1007.6 |
| 20260504215552 | 66 | 282 | 8.0 | 17.0 | 0.00 | 0.00 | 0.00 | 43 | 1007.6 |
| 20260504215048 | 66 | 214 | 8.0 | 17.0 | 0.00 | 0.00 | 0.00 | 43 | 1007.6 |
| 20260504214557 | 67 | 232 | 5.0 | 17.0 | 0.00 | 0.00 | 0.00 | 43 | 1007.5 |
| 20260504214052 | 66 | 254 | 10.0 | 17.0 | 0.00 | 0.00 | 0.00 | 43 | 1007.5 |
| 20260504213548 | 67 | 181 | 8.0 | 23.0 | 0.00 | 0.00 | 0.00 | 41 | 1007.5 |
| 20260504213106 | 67 | 260 | 10.0 | 23.0 | 0.00 | 0.00 | 0.00 | 42 | 1007.5 |
| 20260504212552 | 67 | 200 | 7.0 | 16.0 | 0.00 | 0.00 | 0.00 | 42 | 1007.3 |
| 20260504212046 | 67 | 221 | 8.0 | 19.0 | 0.00 | 0.00 | 0.00 | 42 | 1007.4 |
| 20260504211639 | 67 | 195 | 7.0 | 19.0 | 0.00 | 0.00 | 0.00 | 42 | 1007.3 |
| 20260504211048 | 67 | 257 | 11.0 | 19.0 | 0.00 | 0.00 | 0.00 | 42 | 1007.5 |
| 20260504210548 | 67 | 232 | 9.0 | 21.0 | 0.00 | 0.00 | 0.00 | 41 | 1007.3 |
| 20260504210055 | 67 | 274 | 9.0 | 21.0 | 0.00 | 0.00 | 0.00 | 42 | 1007.3 |
| 20260504205547 | 67 | 244 | 10.0 | 22.0 | 0.00 | 0.00 | 0.00 | 37 | 1007.3 |
| 20260504205048 | 67 | 254 | 12.0 | 22.0 | 0.00 | 0.00 | 0.00 | 40 | 1007.2 |
| 20260504204551 | 67 | 219 | 10.0 | 15.0 | 0.00 | 0.00 | 0.00 | 40 | 1007.2 |
| 20260504204048 | 68 | 236 | 8.0 | 17.0 | 0.00 | 0.00 | 0.00 | 39 | 1007.3 |
| 20260504203545 | 69 | 215 | 5.0 | 20.0 | 0.00 | 0.00 | 0.00 | 38 | 1007.2 |
| 20260504203052 | 69 | 186 | 8.0 | 20.0 | 0.00 | 0.00 | 0.00 | 37 | 1007.2 |
| 20260504202547 | 68 | 251 | 9.0 | 20.0 | 0.00 | 0.00 | 0.00 | 39 | 1007.1 |
| 20260504202048 | 68 | 209 | 6.0 | 14.0 | 0.00 | 0.00 | 0.00 | 35 | 1007.2 |
| 20260504201555 | 68 | 241 | 8.0 | 18.0 | 0.00 | 0.00 | 0.00 | 37 | 1007.1 |
| 20260504201045 | 68 | 257 | 10.0 | 18.0 | 0.00 | 0.00 | 0.00 | 38 | 1007.1 |
| 20260504200548 | 68 | 275 | 6.0 | 18.0 | 0.00 | 0.00 | 0.00 | 40 | 1007.2 |
| 20260504200054 | 68 | 243 | 11.0 | 18.0 | 0.00 | 0.00 | 0.00 | 36 | 1007.3 |
| 20260504195551 | 68 | 183 | 10.0 | 18.0 | 0.00 | 0.00 | 0.00 | 38 | 1007.2 |
| 20260504195049 | 67 | 260 | 7.0 | 19.0 | 0.00 | 0.00 | 0.00 | 35 | 1007.2 |
| 20260504194555 | 68 | 251 | 10.0 | 19.0 | 0.00 | 0.00 | 0.00 | 34 | 1007.2 |
| 20260504194048 | 68 | 224 | 9.0 | 19.0 | 0.00 | 0.00 | 0.00 | 37 | 1007.2 |
| 20260504193548 | 68 | 271 | 10.0 | 19.0 | 0.00 | 0.00 | 0.00 | 37 | 1007.3 |
| 20260504193107 | 68 | 246 | 11.0 | 22.0 | 0.00 | 0.00 | 0.00 | 36 | 1007.4 |
| 20260504192548 | 67 | 187 | 11.0 | 22.0 | 0.00 | 0.00 | 0.00 | 37 | 1007.1 |
| 20260504192048 | 67 | 234 | 10.0 | 22.0 | 0.00 | 0.00 | 0.00 | 37 | 1007.3 |
| 20260504191607 | 67 | 279 | 13.0 | 20.0 | 0.00 | 0.00 | 0.00 | 37 | 1007.2 |
| 20260504191048 | 67 | 256 | 8.0 | 18.0 | 0.00 | 0.00 | 0.00 | 38 | 1007.3 |
| 20260504190549 | 67 | 259 | 10.0 | 18.0 | 0.00 | 0.00 | 0.00 | 37 | 1007.5 |
| 20260504190105 | 68 | 271 | 8.0 | 18.0 | 0.00 | 0.00 | 0.00 | 37 | 1007.4 |
| 20260504185547 | 67 | 248 | 9.0 | 18.0 | 0.00 | 0.00 | 0.00 | 36 | 1007.5 |
| 20260504185050 | 67 | 251 | 9.0 | 17.0 | 0.00 | 0.00 | 0.00 | 36 | 1007.4 |
| 20260504184555 | 67 | 213 | 9.0 | 17.0 | 0.00 | 0.00 | 0.00 | 39 | 1007.5 |
| 20260504184049 | 66 | 268 | 9.0 | 21.0 | 0.00 | 0.00 | 0.00 | 36 | 1007.6 |
| 20260504183551 | 66 | 257 | 10.0 | 21.0 | 0.00 | 0.00 | 0.00 | 37 | 1007.7 |
| 20260504183056 | 66 | 229 | 10.0 | 18.0 | 0.00 | 0.00 | 0.00 | 38 | 1007.8 |
| 20260504182547 | 67 | 257 | 10.0 | 18.0 | 0.00 | 0.00 | 0.00 | 35 | 1007.7 |
| 20260504182050 | 67 | 263 | 9.0 | 18.0 | 0.00 | 0.00 | 0.00 | 36 | 1007.7 |
| 20260504181601 | 66 | 197 | 11.0 | 17.0 | 0.00 | 0.00 | 0.00 | 37 | 1007.9 |
| 20260504181048 | 67 | 250 | 8.0 | 17.0 | 0.00 | 0.00 | 0.00 | 35 | 1008.0 |
| 20260504180552 | 67 | 223 | 6.0 | 22.0 | 0.00 | 0.00 | 0.00 | 36 | 1008.1 |
| 20260504180054 | 66 | 309 | 12.0 | 22.0 | 0.00 | 0.00 | 0.00 | 39 | 1008.1 |
| 20260504175548 | 66 | 259 | 8.0 | 19.0 | 0.00 | 0.00 | 0.00 | 36 | 1008.1 |
| 20260504175048 | 67 | 259 | 7.0 | 19.0 | 0.00 | 0.00 | 0.00 | 35 | 1008.2 |
| 20260504174554 | 66 | 326 | 11.0 | 22.0 | 0.00 | 0.00 | 0.00 | 35 | 1008.2 |
| 20260504174048 | 66 | 222 | 12.0 | 22.0 | 0.00 | 0.00 | 0.00 | 35 | 1008.2 |
| 20260504173548 | 66 | 280 | 11.0 | 17.0 | 0.00 | 0.00 | 0.00 | 38 | 1008.2 |
| 20260504173056 | 66 | 267 | 8.0 | 20.0 | 0.00 | 0.00 | 0.00 | 32 | 1008.1 |
| 20260504172547 | 65 | 221 | 12.0 | 20.0 | 0.00 | 0.00 | 0.00 | 36 | 1008.1 |
| 20260504172048 | 65 | 234 | 12.0 | 20.0 | 0.00 | 0.00 | 0.00 | 36 | 1008.2 |
| 20260504171556 | 65 | 262 | 12.0 | 21.0 | 0.00 | 0.00 | 0.00 | 37 | 1008.2 |
| 20260504171048 | 65 | 245 | 13.0 | 21.0 | 0.00 | 0.00 | 0.00 | 37 | 1008.1 |
| 20260504170550 | 65 | 206 | 11.0 | 21.0 | 0.00 | 0.00 | 0.00 | 36 | 1008.2 |
| 20260504151052 | 62 | 258 | 9.0 | 23.0 | 0.00 | 0.00 | 0.00 | 43 | 1009.5 |
| 20260504150548 | 62 | 297 | 11.0 | 23.0 | 0.00 | 0.00 | 0.00 | 39 | 1009.6 |
| 20260504141048 | 60 | 264 | 8.0 | 16.0 | 0.00 | 0.00 | 0.00 | 44 | 1009.9 |
| 20260504140548 | 59 | 236 | 8.0 | 16.0 | 0.00 | 0.00 | 0.00 | 44 | 1009.9 |
| 20260504130549 | 56 | 249 | 5.0 | 11.0 | 0.00 | 0.00 | 0.00 | 49 | 1010.4 |
| 20260504120108 | 51 | 269 | 6.0 | 14.0 | 0.00 | 0.00 | 0.00 | 56 | 1011.0 |
| 20260504110547 | 47 | 248 | 3.0 | 7.0 | 0.00 | 0.00 | 0.00 | 59 | 1010.8 |
| 20260504100554 | 39 | 0 | 0.0 | 0.0 | 0.00 | 0.00 | 0.00 | 75 | 1010.7 |
| 20260504081605 | 41 | 0 | 0.0 | 0.0 | 0.00 | 0.00 | 0.00 | 73 | 1010.3 |
| 20260504081048 | 41 | 0 | 0.0 | 0.0 | 0.00 | 0.00 | 0.00 | 73 | 1010.2 |
| 20260504080551 | 41 | 0 | 0.0 | 0.0 | 0.00 | 0.00 | 0.00 | 72 | 1010.1 |
| 20260504050551 | 42 | 0 | 0.0 | 2.0 | 0.00 | 0.00 | 0.00 | 57 | 1010.1 |
| 20260504045550 | 42 | 219 | 1.0 | 3.0 | 0.00 | 0.00 | 0.00 | 57 | 1010.3 |
| 20260504045050 | 43 | 219 | 1.0 | 3.0 | 0.00 | 0.00 | 0.00 | 60 | 1010.4 |
| 20260504044555 | 43 | 219 | 1.0 | 3.0 | 0.00 | 0.00 | 0.00 | 56 | 1010.5 |
| 20260504044047 | 43 | 219 | 1.0 | 3.0 | 0.00 | 0.00 | 0.00 | 56 | 1010.3 |
| 20260504043547 | 43 | 219 | 1.0 | 3.0 | 0.00 | 0.00 | 0.00 | 55 | 1010.2 |
| 20260504043058 | 43 | 219 | 1.0 | 3.0 | 0.00 | 0.00 | 0.00 | 55 | 1010.3 |
| 20260504042547 | 43 | 219 | 1.0 | 4.0 | 0.00 | 0.00 | 0.00 | 51 | 1010.3 |
| 20260504042049 | 43 | 221 | 2.0 | 4.0 | 0.00 | 0.00 | 0.00 | 55 | 1010.3 |
| 20260504041551 | 43 | 213 | 2.0 | 3.0 | 0.00 | 0.00 | 0.00 | 55 | 1010.1 |
| 20260504041048 | 43 | 0 | 0.0 | 0.0 | 0.00 | 0.00 | 0.00 | 56 | 1010.2 |
| 20260504040549 | 43 | 0 | 0.0 | 2.0 | 0.00 | 0.00 | 0.00 | 56 | 1010.1 |
| 20260504040132 | 43 | 0 | 0.0 | 3.0 | 0.00 | 0.00 | 0.00 | 55 | 1010.1 |
| 20260504035549 | 43 | 0 | 1.0 | 5.0 | 0.00 | 0.00 | 0.00 | 56 | 1010.0 |
| 20260504035047 | 43 | 226 | 2.0 | 5.0 | 0.00 | 0.00 | 0.00 | 56 | 1010.1 |
| 20260504034601 | 43 | 219 | 2.0 | 4.0 | 0.00 | 0.00 | 0.00 | 56 | 1010.0 |
| 20260504034046 | 42 | 241 | 2.0 | 4.0 | 0.00 | 0.00 | 0.00 | 57 | 1010.1 |
| 20260504033548 | 43 | 241 | 2.0 | 4.0 | 0.00 | 0.00 | 0.00 | 58 | 1009.9 |
| 20260504033051 | 43 | 241 | 2.0 | 4.0 | 0.00 | 0.00 | 0.00 | 60 | 1009.9 |
| 20260504032548 | 43 | 241 | 2.0 | 4.0 | 0.00 | 0.00 | 0.00 | 57 | 1009.9 |
| 20260504032048 | 43 | 241 | 2.0 | 4.0 | 0.00 | 0.00 | 0.00 | 57 | 1009.8 |
| 20260504031600 | 43 | 241 | 2.0 | 4.0 | 0.00 | 0.00 | 0.00 | 55 | 1009.8 |
| 20260504031051 | 43 | 241 | 2.0 | 4.0 | 0.00 | 0.00 | 0.00 | 59 | 1009.8 |
| 20260504030546 | 43 | 240 | 2.0 | 5.0 | 0.00 | 0.00 | 0.00 | 60 | 1009.8 |
| 20260504030051 | 43 | 240 | 2.0 | 5.0 | 0.00 | 0.00 | 0.00 | 61 | 1009.8 |
| 20260504025549 | 43 | 240 | 2.0 | 4.0 | 0.00 | 0.00 | 0.00 | 62 | 1009.8 |
| 20260504025047 | 42 | 243 | 3.0 | 4.0 | 0.00 | 0.00 | 0.00 | 62 | 1009.7 |
| 20260504024550 | 42 | 243 | 2.0 | 5.0 | 0.00 | 0.00 | 0.00 | 62 | 1009.7 |
| 20260504024048 | 42 | 233 | 3.0 | 5.0 | 0.00 | 0.00 | 0.00 | 58 | 1009.7 |
| 20260504023547 | 41 | 220 | 3.0 | 5.0 | 0.00 | 0.00 | 0.00 | 63 | 1009.6 |
| 20260504023054 | 41 | 220 | 2.0 | 4.0 | 0.00 | 0.00 | 0.00 | 65 | 1009.6 |
| 20260504022547 | 41 | 219 | 1.0 | 3.0 | 0.00 | 0.00 | 0.00 | 65 | 1009.6 |
| 20260504022048 | 41 | 0 | 0.0 | 0.0 | 0.00 | 0.00 | 0.00 | 66 | 1009.6 |
| 20260504021557 | 41 | 0 | 0.0 | 0.0 | 0.00 | 0.00 | 0.00 | 66 | 1009.6 |
| 20260504021047 | 41 | 0 | 0.0 | 0.0 | 0.00 | 0.00 | 0.00 | 67 | 1009.5 |
| 20260504020547 | 40 | 0 | 0.0 | 0.0 | 0.00 | 0.00 | 0.00 | 68 | 1009.6 |
| 20260504020109 | 41 | 0 | 0.0 | 0.0 | 0.00 | 0.00 | 0.00 | 67 | 1009.5 |
| 20260504015550 | 41 | 0 | 0.0 | 0.0 | 0.00 | 0.00 | 0.00 | 65 | 1009.4 |
| 20260504015049 | 40 | 0 | 0.0 | 0.0 | 0.00 | 0.00 | 0.00 | 68 | 1009.5 |
| 20260504014556 | 40 | 0 | 0.0 | 0.0 | 0.00 | 0.00 | 0.00 | 65 | 1009.5 |
| 20260504014050 | 40 | 0 | 0.0 | 0.0 | 0.00 | 0.00 | 0.00 | 65 | 1009.4 |
| 20260504013550 | 41 | 0 | 0.0 | 0.0 | 0.00 | 0.00 | 0.00 | 64 | 1009.4 |
| 20260504013053 | 41 | 0 | 0.0 | 0.0 | 0.00 | 0.00 | 0.00 | 63 | 1009.3 |
| 20260504012550 | 41 | 0 | 0.0 | 0.0 | 0.00 | 0.00 | 0.00 | 62 | 1009.3 |
| 20260504012050 | 42 | 0 | 0.0 | 0.0 | 0.00 | 0.00 | 0.00 | 61 | 1009.3 |
| 20260504011600 | 42 | 0 | 0.0 | 0.0 | 0.00 | 0.00 | 0.00 | 60 | 1009.2 |
| 20260504011049 | 42 | 0 | 0.0 | 0.0 | 0.00 | 0.00 | 0.00 | 58 | 1009.1 |
| 20260504010549 | 42 | 0 | 0.0 | 0.0 | 0.00 | 0.00 | 0.00 | 57 | 1009.0 |
| 20260504010100 | 43 | 0 | 0.0 | 0.0 | 0.00 | 0.00 | 0.00 | 58 | 1008.8 |
| 20260504005547 | 43 | 0 | 0.0 | 0.0 | 0.00 | 0.00 | 0.00 | 59 | 1008.8 |
| 20260504005052 | 44 | 0 | 0.0 | 0.0 | 0.00 | 0.00 | 0.00 | 59 | 1008.8 |
| 20260504004601 | 44 | 0 | 0.0 | 0.0 | 0.00 | 0.00 | 0.00 | 58 | 1008.6 |
| 20260504004050 | 45 | 0 | 0.0 | 1.0 | 0.00 | 0.00 | 0.00 | 58 | 1008.6 |